Location: Fisher's Paradise
(46.5411°N, 80.0984°W)
Time: 18:06:15
(UTC-04:00)

Envisat - Visible Passes

Search period start: 25 March 2019 00:00
Search period end: 04 April 2019 00:00
Orbit: 764 x 766 km, 98.2° (Epoch: 24 March)

Date Brightness Start Highest point End Pass type
(mag) Time Alt. Az. Time Alt. Az. Time Alt. Az.
25 Mar 5.8 21:10:34 10° SW 21:14:05 19° W 21:17:37 10° NW visible
26 Mar 4.6 20:32:18 10° SSW 20:37:01 38° W 20:41:46 10° NNW visible
27 Mar 6.3 21:38:54 10° W 21:39:59 11° W 21:41:03 10° WNW visible
28 Mar 5.5 20:58:45 10° SW 21:02:45 23° W 21:06:47 10° NW visible
29 Mar 4.2 20:20:51 10° S 20:25:45 48° W 20:30:40 10° NNW visible
30 Mar 6.0 21:26:05 10° WSW 21:28:36 14° W 21:31:07 10° WNW visible
31 Mar 5.2 20:47:04 10° SSW 20:51:26 28° W 20:55:49 10° NW visible
01 Apr 3.7 20:09:28 10° S 20:14:29 60° W 20:19:31 10° NNW visible
02 Apr 5.8 21:13:57 10° SW 21:17:14 17° W 21:20:32 10° NW visible
03 Apr 4.8 20:35:30 10° SSW 20:40:08 35° W 20:44:48 10° NNW visible
